Location: Cazarilh
(42.9578°N, 0.5819°E)
Time: 18:12:44
(UTC+00:00)

Cosmos 1954 Rocket - Pass Details

Date: 11 December 2019
Orbit: 751 x 782 km, 74.0° (Epoch: 27 January)

Event Time Altitude Azimuth Distance (km) Brightness Sun altitude
Exits shadow 05:21:54 42° 293° (WNW) 1,091 4.3 -20.5°
Maximum altitude 05:23:01 49° 256° (WSW) 989 4.2 -20.3°
Drops below altitude 10° 05:28:05 10° 182° (S) 2,322 6.6 -19.4°
Sets 05:30:32 0° 177° (S) 3,249 7.5 -19.0°
